User: anonymous   Login
Location: Battlefield Observatory
(36.7579°N, 76.2613°W)
Time: 18:38:31
(UTC-04:00)
Language:

Envisat - Orbit

View from above orbital plane
View from above orbital plane
View from above satellite
View from above satellite

Ground track
Ground track

The orbit data is extracted from the following two-line orbital elements,

1 27386U 02009A   18199.56924644 -.00000018  00000-0  76310-5 0  9997
2 27386  98.1821 232.1477 0001364  96.5549  65.6728 14.37925971858031
Epoch (UTC): 18 July 2018 13:39:42
Eccentricity: 0.0001364
inclination: 98.1821°
perigee height: 764 km
apogee height: 766 km
right ascension of ascending node: 232.1477°
argument of perigee: 96.5549°
revolutions per day: 14.37925971
mean anomaly at epoch: 65.6728°
orbit number at epoch: 85803

The dashed part of the orbit path shows where the satellite is in the earth's shadow,  

DLR